DW0148 Weather Reports


time (UTC)temp
C
wind
direction
speed
KPH
gust
KPH
rain 1hr
cm
rain 24hr
cm
rain mn
cm
humidity
%
barometer
mb
20260507225913 17 62 3.2 9.7 0.00 0.48 0.00 62 1011.9
20260507225411 17 136 0.0 3.2 0.00 0.48 0.00 63 1011.9
20260507224838 17 214 0.0 3.2 0.00 0.48 0.00 63 1011.9
20260507224337 17 248 0.0 8.0 0.00 0.48 0.00 64 1011.9
20260507223836 17 73 0.0 8.0 0.00 0.48 0.00 65 1011.9
20260507223334 17 72 1.6 8.0 0.00 0.48 0.00 67 1011.9
20260507222833 18 305 0.0 8.0 0.00 0.48 0.00 69 1011.9
20260507222330 18 76 0.0 4.8 0.00 0.48 0.00 68 1011.9
20260507221829 18 141 0.0 4.8 0.00 0.48 0.00 64 1011.9
20260507221256 18 282 1.6 6.4 0.00 0.48 0.00 66 1011.9
20260507220754 18 227 1.6 6.4 0.00 0.51 0.00 59 1011.9
20260507220222 18 305 0.0 6.4 0.00 0.53 0.00 64 1011.9
20260507215721 18 44 3.2 6.4 0.00 0.56 0.00 58 1011.9
20260507215148 18 251 1.6 4.8 0.00 0.58 0.00 60 1011.9
20260507214647 18 240 3.2 4.8 0.00 0.58 0.00 71 1011.5
20260507214145 18 69 3.2 4.8 0.00 0.61 0.00 62 1011.9
20260507213644 18 8 0.0 4.8 0.00 0.64 0.00 65 1011.5
20260507213111 18 104 1.6 4.8 0.00 0.69 0.00 63 1011.5
20260507212609 18 102 3.2 4.8 0.00 0.71 0.00 57 1011.5
20260507212036 18 246 1.6 1.6 0.00 0.74 0.00 63 1011.5
20260507211534 18 273 0.0 1.6 0.00 0.76 0.00 62 1011.5
20260507210931 18 44 0.0 1.6 0.00 0.76 0.00 66 1011.2
20260507210356 18 44 0.0 8.0 0.00 0.79 0.00 61 1011.2
20260507205823 18 44 0.0 8.0 0.00 0.84 0.00 63 1011.2
20260507205321 18 44 0.0 14.5 0.00 0.86 0.00 63 1011.2
20260507204820 18 10 3.2 14.5 0.00 0.86 0.00 60 1011.2
20260507204319 18 2 3.2 16.1 0.00 0.86 0.00 61 1011.2
20260507203817 19 3 4.8 16.1 0.00 0.89 0.00 59 1011.2
20260507203315 19 3 4.8 9.7 0.00 0.91 0.00 59 1011.2
20260507202813 19 58 1.6 8.0 0.00 0.91 0.00 62 1011.2
20260507202312 18 16 1.6 8.0 0.00 0.94 0.00 67 1011.2
20260507201811 18 29 4.8 8.0 0.00 0.94 0.00 63 1011.2
20260507201310 18 35 1.6 8.0 0.00 0.97 0.00 61 1011.2
20260507200807 18 27 1.6 9.7 0.00 0.99 0.00 61 1011.5
20260507200306 18 29 3.2 9.7 0.00 0.99 0.00 63 1011.5
20260507195805 18 43 1.6 9.7 0.00 1.02 0.00 65 1011.5
20260507195305 18 56 0.0 11.3 0.00 1.02 0.00 65 1011.5
20260507194801 18 44 1.6 11.3 0.00 1.04 0.00 63 1011.5
20260507194258 18 36 4.8 9.7 0.00 1.09 0.00 67 1011.5
20260507193756 18 78 1.6 4.8 0.00 1.09 0.00 68 1011.5
20260507193255 17 12 1.6 4.8 0.00 1.14 0.00 66 1011.5
20260507192722 17 145 0.0 6.4 0.00 1.17 0.00 65 1011.9
20260507192221 17 36 1.6 6.4 0.00 1.17 0.00 67 1011.9
20260507191720 17 39 1.6 6.4 0.00 1.17 0.00 71 1011.9
20260507191218 17 27 3.2 11.3 0.00 1.17 0.00 69 1011.9
20260507190717 17 81 1.6 11.3 0.00 1.19 0.00 72 1011.9
20260507190216 17 44 1.6 12.9 0.00 1.22 0.00 71 1011.9
20260507185714 17 44 3.2 12.9 0.00 1.22 0.00 72 1012.2
20260507185212 17 27 4.8 11.3 0.00 1.22 0.00 70 1012.2
20260507184711 17 39 4.8 8.0 0.00 1.24 0.00 72 1012.2
20260507184210 17 50 1.6 8.0 0.00 1.24 0.00 73 1011.9
20260507183708 17 36 3.2 16.1 0.00 1.27 0.00 72 1011.9
20260507183205 17 8 1.6 16.1 0.00 1.27 0.00 76 1011.9
20260507182702 17 31 3.2 17.7 0.00 1.27 0.00 74 1011.9
20260507182201 17 40 8.0 17.7 0.00 1.30 0.00 75 1011.9
20260507181658 17 20 8.0 16.1 0.00 1.32 0.00 80 1011.9
20260507181157 16 8 1.6 9.7 0.00 1.35 0.00 87 1011.9
20260507180656 16 42 4.8 11.3 0.00 1.35 0.00 91 1012.2
20260507180153 16 23 3.2 11.3 0.00 1.35 0.00 93 1011.9
20260507175651 16 35 4.8 11.3 0.00 1.35 0.00 94 1012.2
20260507175149 16 33 4.8 11.3 0.00 1.35 0.00 94 1011.9
20260507174648 16 28 3.2 12.9 0.00 1.35 0.00 95 1011.9
20260507174116 16 17 1.6 12.9 0.00 1.35 0.00 95 1012.5
20260507173614 15 42 3.2 12.9 0.00 1.35 0.00 95 1012.5
20260507173113 15 18 9.7 12.9 0.00 1.35 0.00 95 1012.5
20260507172611 15 53 4.8 11.3 0.00 1.35 0.00 94 1012.5
20260507172039 15 2 6.4 14.5 0.00 1.35 0.00 95 1012.5
20260507171537 15 126 1.6 14.5 0.00 1.35 0.00 95 1012.5
20260507171004 14 57 3.2 14.5 0.00 1.35 0.00 95 1012.5
20260507170503 14 20 4.8 14.5 0.00 1.35 0.00 95 1012.5
20260507170001 13 114 3.2 11.3 0.00 1.35 0.00 95 1012.5
20260507165429 13 23 3.2 11.3 0.00 1.35 0.00 95 1012.5
20260507164926 13 30 3.2 9.7 0.00 1.35 0.00 95 1012.5
20260507164352 13 34 3.2 9.7 0.00 1.35 0.00 95 1012.5
20260507163850 13 41 1.6 11.3 0.00 1.35 0.00 95 1012.9
20260507163348 12 45 4.8 11.3 0.00 1.35 0.00 95 1012.9
20260507162844 12 43 4.8 11.3 0.00 1.35 0.00 95 1012.9
20260507162342 13 52 4.8 11.3 0.00 1.35 0.00 95 1012.9
20260507161841 13 46 6.4 11.3 0.00 1.35 0.00 95 1012.9
20260507161339 13 64 3.2 11.3 0.00 1.35 0.00 95 1012.9
20260507160838 13 347 1.6 8.0 0.00 1.35 0.00 95 1012.9
20260507160336 13 85 3.2 8.0 0.00 1.35 0.00 95 1012.9
20260507155834 13 37 3.2 8.0 0.00 1.35 1.35 95 1012.5
20260507155229 12 48 3.2 8.0 0.00 1.35 1.35 95 1012.5
20260507154728 12 40 3.2 6.4 0.00 1.35 1.35 95 1012.5
20260507154155 12 41 1.6 8.0 0.00 1.35 1.35 95 1012.5
20260507153654 12 56 4.8 8.0 0.00 1.35 1.35 95 1012.5
20260507153121 12 215 1.6 3.2 0.00 1.35 1.35 95 1012.5
20260507152619 12 215 1.6 3.2 0.00 1.35 1.35 95 1012.5
20260507152118 12 61 0.0 4.8 0.00 1.35 1.35 95 1012.5
20260507151616 11 71 1.6 4.8 0.00 1.35 1.35 95 1012.5
20260507151115 12 47 3.2 4.8 0.00 1.35 1.35 95 1012.5
20260507150614 12 77 1.6 4.8 0.00 1.35 1.35 95 1012.5
20260507150009 12 53 1.6 4.8 0.00 1.35 1.35 95 1012.5
20260507145507 12 51 3.2 4.8 0.00 1.35 1.35 95 1012.5
20260507145005 12 89 0.0 1.6 0.00 1.37 1.35 95 1012.5
20260507144504 12 82 1.6 1.6 0.00 1.40 1.35 95 1012.5
20260507144003 12 103 1.6 3.2 0.00 1.40 1.35 95 1012.5
20260507143501 12 6 0.0 3.2 0.00 1.42 1.35 95 1012.5
20260507143000 12 6 0.0 4.8 0.00 1.45 1.35 95 1012.5
20260507142458 12 16 1.6 4.8 0.00 1.47 1.35 95 1012.2
20260507141956 12 48 1.6 6.4 0.00 1.50 1.35 95 1012.2
20260507141455 12 70 3.2 6.4 0.00 1.52 1.35 95 1012.2
20260507140953 12 64 0.0 6.4 0.00 1.52 1.35 95 1012.2
20260507140452 12 78 1.6 6.4 0.00 1.55 1.35 95 1011.9
20260507135951 12 44 0.0 6.4 0.00 1.57 1.35 95 1011.9
20260507135449 12 44 0.0 6.4 0.00 1.57 1.35 95 1011.9
20260507134947 12 27 1.6 3.2 0.00 1.63 1.35 95 1011.9
20260507134445 12 23 0.0 6.4 0.00 1.65 1.35 95 1011.9
20260507133943 12 23 1.6 6.4 0.00 1.68 1.35 95 1011.9
20260507133441 12 5 0.0 6.4 0.00 1.73 1.35 95 1011.9
20260507132939 12 58 3.2 6.4 0.00 1.80 1.35 95 1011.9
20260507132437 12 72 1.6 1.6 0.00 1.85 1.35 96 1011.9
20260507131934 12 69 1.6 1.6 0.00 1.85 1.35 96 1011.9
20260507131433 12 84 0.0 0.0 0.00 1.88 1.35 96 1011.9
20260507130932 12 85 0.0 0.0 0.00 1.93 1.35 96 1011.5
20260507130431 12 85 0.0 1.6 0.00 1.98 1.35 96 1011.5
20260507125928 12 84 0.0 1.6 0.00 2.06 1.35 96 1011.5
20260507125427 12 84 0.0 1.6 0.00 2.08 1.35 96 1011.5
20260507124925 12 85 0.0 1.6 0.00 2.13 1.35 96 1011.5
20260507124424 12 84 0.0 0.0 0.00 2.16 1.35 96 1011.9
20260507123820 12 84 0.0 0.0 0.00 2.24 1.35 96 1011.9
20260507123319 12 85 0.0 0.0 0.00 2.36 1.35 96 1011.9
20260507122746 12 84 0.0 0.0 0.00 2.46 1.35 96 1011.9
20260507122245 12 84 0.0 0.0 0.00 2.51 1.35 96 1011.5
20260507121743 12 85 0.0 0.0 0.00 2.57 1.35 96 1011.5
20260507121242 12 84 0.0 0.0 0.00 2.64 1.35 96 1011.5
20260507120739 12 85 0.0 0.0 0.00 2.67 1.35 96 1011.5
20260507120238 12 85 0.0 0.0 0.00 2.69 1.35 96 1011.5
20260507115736 12 84 0.0 0.0 0.00 2.72 1.35 96 1011.2
20260507115233 12 84 0.0 1.6 0.00 2.74 1.35 96 1011.2
20260507114732 12 84 0.0 1.6 0.00 2.77 1.35 96 1011.2
20260507114230 11 84 0.0 1.6 0.00 2.79 1.35 96 1011.2
20260507113729 11 84 0.0 1.6 0.00 2.79 1.35 96 1010.8
20260507113228 12 113 0.0 1.6 0.00 2.79 1.35 96 1011.2
20260507112655 12 118 0.0 1.6 0.00 2.82 1.35 96 1011.2
20260507112153 12 119 1.6 3.2 0.00 2.82 1.35 96 1011.2
20260507111652 12 59 1.6 3.2 0.03 2.82 1.35 96 1010.5
20260507111151 12 17 0.0 3.2 0.03 2.82 1.35 96 1010.5
20260507110616 12 298 1.6 3.2 0.03 2.82 1.35 96 1010.5
20260507110043 12 60 1.6 1.6 0.03 2.82 1.35 96 1010.2
20260507105541 12 59 1.6 1.6 0.03 2.84 1.35 96 1010.2
20260507105040 12 59 0.0 3.2 0.03 2.84 1.35 96 1010.5
20260507104539 12 59 0.0 3.2 0.03 2.84 1.35 96 1010.5
20260507104038 12 59 1.6 3.2 0.03 2.84 1.35 96 1010.2
20260507103537 12 65 0.0 1.6 0.03 2.84 1.35 96 1010.5
20260507103036 12 65 0.0 1.6 0.03 2.84 1.35 96 1010.5
20260507102535 12 70 1.6 1.6 0.03 2.84 1.35 96 1010.5
20260507102033 12 17 0.0 1.6 0.00 2.82 1.32 96 1010.8
20260507101459 12 18 0.0 1.6 0.03 2.82 1.32 96 1010.5
20260507100957 12 17 0.0 1.6 0.03 2.82 1.32 95 1010.5
20260507100455 12 28 1.6 1.6 0.03 2.82 1.32 96 1010.5
20260507095922 12 34 0.0 0.0 0.03 2.82 1.32 96 1010.5
20260507095421 12 33 0.0 0.0 0.03 2.82 1.32 96 1010.8
20260507094919 12 33 0.0 0.0 0.03 2.82 1.32 95 1010.5
20260507094418 12 46 0.0 0.0 0.05 2.82 1.32 96 1010.8
20260507093916 12 45 0.0 0.0 0.05 2.82 1.32 96 1010.8
20260507093415 12 46 0.0 0.0 0.08 2.82 1.32 95 1010.5
20260507092841 12 45 0.0 1.6 0.08 2.82 1.32 95 1010.2
20260507092308 12 46 0.0 1.6 0.08 2.82 1.32 95 1010.2
20260507091807 12 45 0.0 1.6 0.05 2.79 1.30 95 1010.2
20260507091306 12 55 1.6 1.6 0.05 2.79 1.30 95 1010.2
20260507090805 12 56 0.0 0.0 0.05 2.79 1.30 95 1010.2
20260507090303 12 56 0.0 1.6 0.05 2.79 1.30 95 1010.2
20260507085801 12 56 0.0 1.6 0.05 2.79 1.30 95 1010.2
20260507085228 12 57 0.0 1.6 0.05 2.79 1.30 95 1010.2
20260507084728 12 57 0.0 1.6 0.05 2.79 1.30 95 1010.2
20260507084226 12 56 0.0 1.6 0.03 2.77 1.27 95 1010.5
20260507083725 12 66 1.6 1.6 0.03 2.77 1.27 95 1010.2
20260507083223 12 70 0.0 1.6 0.00 2.74 1.24 95 1010.5
20260507082722 12 69 0.0 1.6 0.00 2.74 1.24 95 1010.8
20260507082220 12 70 0.0 1.6 0.00 2.74 1.24 95 1010.5
20260507081719 12 69 0.0 1.6 0.00 2.74 1.24 95 1010.2
20260507081217 12 69 0.0 1.6 0.00 2.74 1.24 95 1010.2
20260507080716 13 68 1.6 1.6 0.00 2.74 1.24 95 1010.2
20260507080215 13 68 0.0 1.6 0.00 2.74 1.24 95 1010.2
20260507075712 13 84 0.0 0.0 0.00 2.74 1.24 95 1010.2
20260507075211 13 84 0.0 0.0 0.00 2.74 1.24 95 1010.5
20260507074637 13 85 0.0 1.6 0.00 2.74 1.24 95 1010.5
20260507074136 13 84 0.0 3.2 0.00 2.74 1.24 95 1010.5
20260507073635 13 84 0.0 3.2 0.00 2.74 1.24 95 1010.5
20260507073101 13 84 0.0 3.2 0.00 2.74 1.24 95 1010.2
20260507072600 13 86 1.6 3.2 0.00 2.74 1.24 95 1010.2
20260507072059 13 139 0.0 1.6 0.00 2.74 1.24 95 1010.2
20260507071558 13 143 0.0 1.6 0.00 2.74 1.24 95 1010.2
20260507071055 13 142 1.6 1.6 0.00 2.74 1.24 95 1010.2
20260507070554 13 160 0.0 1.6 0.00 2.74 1.24 95 1010.2
20260507070020 13 161 0.0 0.0 0.00 2.74 1.24 95 1009.8
20260507065456 13 161 0.0 0.0 0.00 2.74 1.24 95 1009.8
20260507064955 13 160 0.0 0.0 0.00 2.74 1.24 95 1010.2
20260507064454 13 161 0.0 0.0 0.00 2.74 1.24 95 1010.5
20260507063953 13 160 0.0 0.0 0.00 2.74 1.24 95 1010.5
20260507063452 13 160 0.0 1.6 0.00 2.74 1.24 95 1010.8
20260507062951 13 160 0.0 1.6 0.00 2.74 1.24 95 1010.8
20260507062450 13 160 0.0 3.2 0.00 2.74 1.24 95 1010.8
20260507061916 13 203 0.0 3.2 0.00 2.74 1.24 95 1010.8
20260507061416 13 203 1.6 3.2 0.00 2.74 1.24 95 1010.8
20260507060915 13 188 3.2 3.2 0.00 2.74 1.24 95 1010.5
20260507060413 13 99 0.0 4.8 0.00 2.74 1.24 95 1010.5
20260507055840 13 177 1.6 4.8 0.00 2.74 1.24 95 1010.2
20260507055307 13 280 1.6 9.7 0.00 2.74 1.24 95 1010.2
20260507054806 14 42 1.6 9.7 0.00 2.74 1.24 95 1010.2
20260507054304 14 280 0.0 9.7 0.00 2.74 1.24 95 1010.5
20260507053802 14 37 3.2 9.7 0.00 2.74 1.24 95 1010.5
20260507053301 15 43 3.2 8.0 0.00 2.74 1.24 95 1010.5
20260507052800 15 56 3.2 8.0 0.00 2.74 1.24 95 1010.5
20260507052259 15 57 1.6 4.8 0.00 2.74 1.24 95 1010.8
20260507051757 15 36 1.6 4.8 0.00 2.74 1.24 95 1010.8
20260507051256 15 66 1.6 6.4 0.00 2.74 1.24 95 1010.8
20260507050755 15 3 0.0 6.4 0.00 2.74 1.24 95 1010.8
20260507050253 15 44 1.6 4.8 0.00 2.74 1.24 95 1010.8
20260507045751 15 41 0.0 4.8 0.00 2.74 1.24 95 1010.5
20260507045249 15 40 1.6 4.8 0.00 2.74 1.24 95 1010.5
20260507044746 15 44 1.6 4.8 0.00 2.74 1.24 95 1010.5
20260507044244 15 44 3.2 4.8 0.00 2.74 1.24 95 1010.8
20260507043712 15 5 0.0 0.0 0.00 2.74 1.24 95 1010.8
20260507043210 15 4 0.0 1.6 0.00 2.74 1.24 95 1010.8
20260507042708 15 5 0.0 1.6 0.00 2.74 1.24 95 1010.8
20260507042207 15 5 0.0 1.6 0.00 2.74 1.24 95 1010.8
20260507041705 15 5 1.6 1.6 0.00 2.74 1.24 95 1010.5
20260507041204 15 4 0.0 1.6 0.00 2.74 1.24 95 1010.5
20260507040703 15 5 0.0 1.6 0.00 2.74 1.24 95 1010.5
20260507040129 15 5 0.0 1.6 0.00 2.74 1.24 95 1010.5
20260507035628 15 5 1.6 1.6 0.00 2.74 1.24 95 1010.5
20260507035127 15 7 1.6 1.6 0.00 2.74 1.24 95 1010.8
20260507034626 15 356 0.0 3.2 0.00 2.74 1.24 95 1010.8
20260507034125 15 355 0.0 3.2 0.00 2.74 1.24 95 1010.8
20260507033623 15 355 0.0 4.8 0.00 2.74 1.24 95 1010.5
20260507033121 15 24 1.6 4.8 0.00 2.74 1.24 95 1010.5
20260507032620 15 42 1.6 4.8 0.00 2.74 1.24 95 1010.5
20260507032119 16 42 0.0 4.8 0.00 2.74 1.24 95 1010.2
20260507031618 16 73 1.6 3.2 0.00 2.74 1.24 95 1010.5
20260507031117 16 54 1.6 3.2 0.00 2.74 1.24 95 1010.8
20260507030616 16 86 1.6 1.6 0.00 2.74 1.24 95 1010.8
20260507030115 16 61 0.0 1.6 0.00 2.74 1.24 95 1010.8
20260507025612 16 60 0.0 1.6 0.00 2.74 1.24 95 1010.5
20260507025110 16 61 0.0 1.6 0.00 2.74 1.24 95 1010.5
20260507024537 16 61 0.0 3.2 0.00 2.74 1.24 95 1010.8
20260507024004 16 63 1.6 3.2 0.00 2.74 1.24 95 1010.8
20260507023503 16 58 0.0 1.6 0.00 2.74 1.24 95 1010.8
20260507023000 16 58 0.0 1.6 0.00 2.74 1.24 95 1011.2
20260507022459 16 58 0.0 1.6 0.00 2.74 1.24 95 1011.2
20260507021957 16 58 0.0 1.6 0.00 2.74 1.24 95 1011.2
20260507021423 16 58 0.0 1.6 0.00 2.74 1.24 95 1011.2
20260507020920 16 58 1.6 1.6 0.00 2.74 1.24 95 1011.2
20260507020418 16 58 0.0 1.6 0.00 2.74 1.24 95 1010.5
20260507015917 16 58 0.0 3.2 0.00 2.74 1.24 95 1010.5
20260507015416 16 49 0.0 3.2 0.00 2.74 1.24 95 1010.8
20260507014915 16 38 0.0 1.6 0.00 2.74 1.24 95 1010.8
20260507014412 17 38 0.0 1.6 0.00 2.74 1.24 95 1010.5
20260507013840 17 38 0.0 3.2 0.00 2.74 1.24 95 1010.8
20260507013339 17 39 0.0 3.2 0.00 2.74 1.24 95 1010.5
20260507012838 17 39 0.0 3.2 0.00 2.74 1.24 95 1010.5
20260507012337 17 63 1.6 3.2 0.03 2.74 1.24 95 1010.5
20260507011836 17 102 1.6 1.6 0.03 2.74 1.24 95 1010.5
20260507011334 17 101 1.6 1.6 0.05 2.74 1.24 95 1010.8
20260507010833 17 101 0.0 0.0 0.08 2.74 1.24 95 1010.8
20260507010331 17 101 0.0 0.0 0.10 2.74 1.24 95 1010.5
20260507005830 17 101 0.0 1.6 0.13 2.74 1.24 95 1010.8
20260507005329 17 101 0.0 1.6 0.13 2.74 1.24 95 1011.2
20260507004827 17 102 0.0 1.6 0.20 2.74 1.24 95 1010.5
20260507004325 17 102 1.6 6.4 0.25 2.74 1.24 95 1009.8
20260507003823 17 101 1.6 12.9 0.28 2.74 1.24 95 1009.8
20260507003322 17 125 0.0 12.9 0.30 2.74 1.24 95 1009.8
20260507002821 17 125 1.6 12.9 0.33 2.74 1.24 95 1009.5
20260507002319 17 82 4.8 12.9 0.30 2.72 1.22 95 1010.8
20260507001818 17 221 1.6 6.4 0.33 2.72 1.22 95 1011.9
20260507001317 17 208 1.6 6.4 0.33 2.69 1.19 95 1011.2
20260507000815 17 184 3.2 8.0 0.30 2.67 1.17 95 1011.2
20260507000242 17 248 1.6 9.7 0.25 2.62 1.12 95 1010.5
20260506235739 17 232 3.2 9.7 0.25 2.62 1.12 95 1010.2
20260506235237 17 226 3.2 8.0 0.23 2.59 1.09 95 1010.2
20260506234735 18 223 3.2 8.0 0.18 2.54 1.04 95 1010.5
20260506234234 18 356 0.0 1.6 0.13 2.49 0.99 95 1010.2
20260506233733 18 355 0.0 1.6 0.10 2.46 0.97 95 1009.5
20260506233232 18 352 1.6 3.2 0.08 2.44 0.94 95 1009.5
20260506232731 18 242 0.0 4.8 0.05 2.41 0.91 95 1009.8
20260506232230 18 248 0.0 11.3 0.05 2.41 0.91 95 1009.8
20260506231728 18 31 1.6 11.3 0.00 2.36 0.86 95 1009.8
20260506231155 18 240 1.6 12.9 0.00 2.36 0.86 95 1010.2
20260506230654 18 231 4.8 12.9 0.03 2.36 0.86 95 1010.2